Location: Armagh
(54.3500°N, 6.6670°W)
Time: 09:41:26
(UTC+01:00)

ISS - Pass Details

Date: 15 December 2017
Orbit: 403 x 408 km, 51.6° (Epoch: 20 October)

Event Time Altitude Azimuth Distance (km) Brightness Sun altitude
Rises 16:36:07 0° 277° (W) 2,406 1.0 -4.7°
Reaches altitude 10° 16:38:23 10° 266° (W) 1,534 0.2 -5.0°
Maximum altitude 16:41:26 30° 204° (SSW) 808 -1.6 -5.4°
Drops below altitude 10° 16:44:27 10° 142° (SE) 1,520 -1.0 -5.8°
Enters shadow 16:51:14 -13° 123° (ESE) 4,195 1.1 -6.6°
